Theta_e
296 296 297 297 297 297 297 297 297 297 297 298 298 297 297 298 298 299 299 299 300 301 301 301 302 302 302 302 303 304 304 304 307 313 315 316 317 316 316 315 315 311 310 314 313 313 316 316 315 316 315 316 320 320
296 296 297 297 296 296 297 297 297 297 298 298 297 297 298 298 298 299 299 299 299 300 300 301 301 301 302 302 302 303 304 305 305 306 306 308 314 316 315 316 314 317 314 310 312 314 314 314 314 315 316 316 317 316
296 296 297 297 297 297 297 298 298 298 298 298 297 297 298 299 299 299 298 298 298 299 299 300 300 300 301 301 302 304 303 304 305 306 305 305 306 305 312 315 316 314 315 312 311 313 311 314 315 315 315 316 317 317
295 296 296 296 297 297 297 297 298 298 298 298 298 298 298 298 298 298 298 298 299 299 300 299 299 300 301 301 302 303 302 303 303 304 305 303 306 306 305 307 307 306 306 315 317 316 314 314 315 316 316 316 317 318
296 295 296 296 296 297 297 297 298 297 298 298 297 297 297 298 298 298 298 298 298 299 300 300 300 301 301 301 302 302 303 303 303 304 304 305 304 305 305 306 307 308 309 311 313 313 315 314 315 315 315 315 315 315
296 296 296 296 296 297 297 297 296 296 295 295 295 296 298 299 298 299 299 298 298 299 300 300 300 300 300 301 302 302 303 303 303 304 305 305 304 305 306 306 305 305 305 306 307 312 313 314 315 315 315 315 315 314
296 296 296 296 296 296 297 296 295 295 295 296 295 296 298 298 299 299 299 300 300 299 300 299 300 301 301 300 300 301 302 303 304 303 304 304 305 305 306 307 305 305 308 311 310 306 305 306 312 314 315 315 315 316
296 296 296 296 296 296 297 295 294 295 295 295 295 295 297 298 298 299 299 299 300 301 300 300 294 300 300 301 301 301 301 302 303 304 304 304 304 305 305 305 305 305 305 305 305 305 306 307 308 311 313 314 315 315
296 296 296 296 296 296 297 295 295 295 294 295 295 296 297 298 298 298 298 298 299 298 299 299 301 300 301 302 302 303 302 302 303 302 303 303 304 305 305 305 305 306 306 306 306 307 308 310 311 311 311 311 311 312
296 295 296 295 296 296 296 297 295 294 295 296 296 297 297 297 297 298 299 299 298 299 298 298 298 297 300 302 300 300 301 302 302 299 304 304 304 303 303 303 304 305 306 306 309 310 310 310 311 311 311 311 312 311
296 296 296 295 295 295 296 296 295 295 296 297 296 296 297 298 298 298 298 299 298 298 298 298 298 298 300 299 297 301 297 299 296 299 302 302 303 303 304 304 304 304 305 306 307 308 308 309 309 309 310 311 311 312
296 296 296 294 295 294 295 296 295 296 296 296 296 297 297 298 298 298 298 296 298 299 298 298 299 300 299 300 299 298 299 293 297 298 296 295 302 302 302 303 304 304 305 305 306 306 307 308 308 309 310 311 310 311
296 296 295 294 294 294 295 296 296 295 296 296 297 297 297 297 298 294 290 297 295 298 300 300 300 301 301 301 301 298 302 301 299 292 299 300 301 302 302 303 303 304 305 305 306 306 307 308 308 309 309 308 309 310
296 295 294 294 294 294 295 295 295 296 297 296 296 296 294 294 290 289 290 293 299 300 301 301 301 302 302 302 300 304 299 300 303 303 302 302 303 303 304 304 305 305 306 306 306 306 306 306 307 307 308 308 309 310
295 295 295 295 295 295 295 295 296 296 296 296 295 290 291 295 296 298 298 298 298 299 301 300 300 301 301 302 302 301 303 304 303 303 302 303 302 301 301 302 307 303 303 304 305 306 307 308 308 308 309 309 310 311
295 295 295 295 295 296 296 296 296 296 296 296 295 293 296 295 294 297 296 298 298 300 300 301 298 300 298 302 304 304 304 304 302 302 302 301 300 299 299 300 300 300 301 302 303 305 306 306 306 307 308 308 309 310
296 296 296 296 296 295 295 296 296 298 296 296 296 295 296 297 297 299 300 300 300 300 295 295 294 296 293 300 300 300 302 301 300 301 300 300 299 298 298 298 298 299 300 302 303 303 304 305 306 307 307 307 308 310
296 296 295 296 297 297 298 298 298 296 296 296 296 296 296 296 296 296 296 296 297 299 300 295 299 300 300 296 300 301 301 302 300 299 297 295 295 295 296 296 296 297 298 299 299 300 301 302 303 302 302 303 305 306
295 297 297 297 297 297 298 297 297 297 296 296 296 297 297 298 297 297 298 298 298 299 299 299 300 300 300 300 300 299 299 297 297 295 294 294 293 293 293 293 293 293 294 295 295 295 295 295 296 297 298 300 300 300
297 297 297 297 298 297 297 296 296 296 296 297 296 297 297 297 297 297 297 297 296 296 297 298 297 295 295 295 296 297 298 297 296 295 294 293 292 292 292 292 291 291 291 292 292 293 293 293 293 293 293 293 294 294
297 298 298 298 297 297 297 296 295 295 296 296 296 296 296 296 297 296 296 295 294 293 293 292 292 293 294 295 296 296 296 296 294 294 293 292 292 292 292 292 292 292 291 291 291 291 291 291 291 292 293 292 292 293
298 298 297 297 297 297 296 295 296 296 296 297 296 296 298 298 297 296 293 293 291 290 290 290 291 293 293 294 294 294 294 294 294 293 293 293 292 291 291 291 291 291 291 290 290 290 290 292 293 293 293 293 293 293
297 298 297 297 296 296 294 295 295 295 296 296 296 297 296 297 296 294 293 291 290 288 289 291 292 292 292 293 294 293 293 294 293 292 292 291 291 291 291 291 291 291 291 291 291 291 290 290 290 290 290 290 289 289
297 297 295 294 294 292 293 294 293 293 294 294 295 295 294 294 295 293 292 290 287 287 289 291 293 292 292 293 292 291 291 292 292 291 291 291 290 288 288 287 287 287 287 287 287 287 287 286 286 286 286 286 286 286
295 290 291 288 292 289 289 289 290 288 290 291 290 293 287 295 289 290 291 288 286 286 288 289 291 291 290 289 290 290 291 291 290 290 288 287 287 287 287 287 286 286 287 287 286 286 286 286 286 286 286 286 286 286
285 286 287 282 287 288 288 289 288 290 292 290 293 293 292 284 283 288 288 285 285 285 286 287 288 289 289 289 289 290 289 290 290 289 287 287 287 287 287 286 286 285 286 286 286 286 286 286 286 286 286 285 285 285
283 287 288 288 290 292 291 292 292 289 292 293 292 284 281 281 286 287 286 285 285 285 286 287 287 288 287 287 288 288 288 289 288 287 286 286 286 286 286 286 285 284 285 285 285 285 285 285 284 284 284 283 283 283
286 287 283 287 288 289 290 290 290 290 289 288 285 281 279 284 286 285 285 284 285 285 286 286 287 287 287 287 286 285 284 284 285 285 285 285 285 284 284 284 284 284 284 284 283 283 283 283 282 282 282 282 281 281
286 286 286 279 285 286 286 287 287 286 285 286 284 282 283 283 283 284 284 285 285 286 286 286 286 287 287 287 287 286 285 284 285 286 286 284 284 283 283 283 283 282 282 282 282 282 282 282 282 281 281 281 281 281
287 287 284 282 284 285 284 285 285 284 284 284 283 283 282 283 284 284 284 285 286 287 287 287 286 287 287 287 286 285 285 285 284 284 284 283 282 282 282 282 282 282 282 282 282 282 282 282 282 282 281 281 281 281
287 287 286 284 282 284 284 284 285 285 284 284 284 283 283 283 283 284 284 284 285 286 286 286 286 286 286 286 285 284 283 282 282 282 282 282 282 282 282 282 281 281 281 281 281 281 281 281 281 281 281 280 280 280
287 287 284 281 283 285 285 286 286 286 286 285 285 285 284 284 283 284 284 284 284 285 285 286 286 285 285 284 283 282 282 281 281 281 281 281 281 281 281 281 281 281 281 281 281 281 281 280 280 280 280 280 279 279
287 287 286 286 285 286 286 286 285 285 285 285 285 285 284 284 283 283 284 284 284 285 286 285 285 284 283 282 282 281 281 281 281 281 281 281 281 281 281 281 281 281 281 281 280 280 280 280 279 279 279 279 279 279
Wind_Speed
25 25 25 24 24 24 24 24 24 24 25 25 25 26 26 27 28 25 30 28 27 22 28 24 21 27 25 20 9 15 15 8 8 7 7 6 6 8 11 17 11 8 7 10 11 9 24 6 4 19 6 14 3 4
25 24 24 23 21 22 23 23 23 24 24 26 26 25 26 27 27 26 30 29 25 26 26 15 21 31 41 40 24 17 15 11 8 3 4 5 5 6 9 18 10 22 15 4 9 12 11 14 9 14 12 19 35 35
27 26 24 24 23 24 24 23 24 25 26 25 26 26 26 26 27 27 30 28 25 24 30 34 38 39 34 38 38 26 27 29 23 22 8 2 8 4 7 6 7 7 16 11 5 13 12 30 40 48 38 32 29 33
28 28 27 26 27 24 25 23 23 22 22 21 22 23 24 25 26 26 29 30 27 14 7 27 29 34 32 36 41 41 46 43 41 26 18 4 4 12 8 10 13 14 21 19 22 21 22 24 30 37 39 38 33 35
30 28 28 28 28 25 25 21 20 19 19 20 21 21 23 25 26 26 28 32 31 29 5 8 14 21 25 26 30 35 41 42 36 21 9 8 8 6 8 7 12 15 7 9 11 33 24 14 18 22 27 32 35 33
31 29 27 27 25 26 22 19 17 17 17 18 18 18 19 17 17 17 16 29 31 31 14 6 22 36 35 39 31 31 35 41 34 21 9 20 36 12 8 13 29 31 32 39 38 36 40 39 41 38 31 21 22 20
31 30 28 26 25 25 21 20 18 18 18 17 16 15 15 17 15 21 8 5 9 24 15 5 6 22 28 30 34 35 34 29 27 24 14 28 27 18 7 11 25 30 30 35 42 48 49 49 33 37 33 35 31 31
32 30 29 26 25 22 20 20 19 18 17 17 15 12 11 14 17 21 29 23 2 17 10 3 4 4 7 11 10 19 21 22 25 25 20 14 21 17 12 20 36 43 46 46 49 58 49 52 49 44 37 35 39 38
33 31 29 26 24 22 20 20 18 18 16 14 11 9 9 12 10 22 15 13 19 17 4 3 1 3 6 11 10 7 15 5 10 6 14 13 13 9 12 28 36 41 44 46 49 51 46 41 41 48 44 45 41 37
33 31 30 27 25 23 23 21 18 16 13 9 8 5 5 8 12 5 7 7 9 9 9 5 9 6 10 4 1 2 3 2 3 6 4 6 13 38 47 57 58 48 48 50 44 40 40 44 45 46 46 45 38 42
31 30 30 27 25 24 23 20 17 13 10 11 8 8 5 5 10 6 5 5 5 3 8 8 14 9 8 5 4 8 3 3 3 6 7 5 11 26 43 46 58 57 53 52 50 51 52 47 48 42 40 40 38 38
29 29 29 26 24 23 21 18 15 15 15 9 4 7 8 5 5 4 4 3 4 4 6 6 11 16 8 12 5 5 4 1 8 3 3 3 17 32 34 35 43 46 52 56 57 57 61 58 56 53 47 45 45 43
27 28 27 25 24 23 20 18 16 15 17 14 9 7 6 7 5 4 5 4 3 5 8 8 4 7 9 13 5 3 6 5 1 1 4 7 24 29 35 37 38 40 39 43 52 54 55 56 57 53 52 52 52 51
24 24 23 23 22 22 20 18 14 16 15 7 6 5 5 3 5 6 5 4 11 7 11 18 10 4 7 4 4 5 5 2 4 4 7 9 18 12 16 16 20 25 21 27 37 45 51 55 54 56 52 52 51 51
21 21 22 23 23 22 20 18 16 21 14 7 6 5 8 13 11 9 17 18 21 21 16 4 4 9 3 5 4 4 4 5 5 5 4 7 14 17 20 23 25 29 26 23 21 20 22 26 28 32 42 40 42 42
19 19 23 23 22 21 19 18 19 22 11 7 7 4 6 6 8 19 23 21 22 19 17 4 2 3 5 4 4 3 3 5 5 2 7 15 19 20 20 22 21 22 24 24 23 21 26 31 32 30 28 30 32 29
17 22 21 19 20 19 18 20 18 14 11 7 6 18 15 9 12 15 12 10 9 9 1 1 1 9 3 4 3 3 3 5 8 11 15 19 22 23 23 22 19 17 14 15 15 18 20 25 22 21 20 22 23 23
22 20 17 14 13 18 20 25 13 8 7 9 6 16 23 19 17 19 22 24 18 14 8 5 3 4 5 5 10 11 23 19 12 14 14 15 18 20 17 15 15 13 10 5 4 1 2 3 1 5 8 11 16 19
19 17 14 14 19 19 9 12 7 6 11 5 10 9 15 14 21 23 23 22 19 21 8 6 6 4 5 2 4 15 17 13 8 6 10 15 15 15 15 14 13 14 14 13 13 16 17 15 14 12 12 16 20 20
12 12 14 19 26 8 6 5 11 5 6 9 8 9 8 8 11 13 16 16 16 7 5 4 1 4 5 16 18 18 13 8 5 6 14 17 17 19 19 19 21 23 26 26 25 23 23 24 23 22 21 22 25 27
15 18 21 29 13 4 5 7 7 4 3 6 4 7 4 6 4 0 1 3 3 2 2 5 10 15 13 10 10 5 2 3 9 11 12 17 19 22 24 27 29 33 35 34 36 36 37 35 34 36 36 36 37 38
23 32 24 17 4 4 2 5 3 3 3 2 4 6 4 2 4 4 3 5 3 4 8 14 17 10 4 4 6 9 11 13 15 17 18 20 24 26 27 28 31 32 33 32 32 33 33 32 32 34 34 34 33 32
30 25 11 6 3 4 2 7 3 2 2 1 2 1 1 2 3 7 3 3 4 12 10 9 2 5 10 12 13 14 16 18 21 22 22 23 24 25 27 27 27 28 28 27 26 27 28 26 27 29 29 30 30 30
18 6 4 5 4 3 6 3 3 2 1 1 1 2 1 1 4 3 2 2 11 14 12 10 8 11 15 17 19 20 20 21 23 23 21 22 23 24 23 24 24 24 23 22 24 26 27 27 26 28 28 28 28 28
6 3 3 1 2 4 3 2 2 2 1 2 2 1 2 1 2 2 2 5 13 16 13 12 11 15 18 18 16 15 16 20 22 23 19 17 20 21 24 24 24 24 21 22 24 23 23 22 23 24 24 23 22 22
5 1 2 4 1 4 4 3 3 3 2 1 1 1 2 3 4 3 2 9 9 12 11 10 12 15 16 16 16 16 16 16 18 22 19 16 18 20 22 23 23 23 20 19 18 19 19 19 19 19 19 18 17 16
4 2 2 1 2 4 4 4 4 3 2 1 1 3 3 4 2 2 1 10 7 7 6 9 14 19 20 19 18 16 15 16 19 24 21 20 20 20 20 21 21 17 14 15 16 16 16 15 15 15 14 14 13 13
3 2 4 3 7 7 3 3 2 2 2 3 3 4 4 3 2 2 3 3 5 8 11 13 15 17 19 21 22 22 20 19 20 20 20 20 19 19 17 15 14 12 12 12 12 12 13 13 13 12 12 12 12 11
3 3 6 5 6 6 6 3 2 2 2 2 3 2 2 3 4 4 4 5 9 11 15 16 15 14 15 14 14 14 14 11 11 14 16 17 15 16 14 12 11 11 11 11 12 12 12 13 13 13 13 13 13 12
3 3 5 4 3 3 5 4 6 6 6 7 8 10 10 9 7 5 4 6 7 9 11 12 14 13 15 15 15 14 13 11 10 12 13 14 14 12 10 10 10 11 11 11 12 12 12 12 11 12 12 13 14 15
4 4 5 5 4 6 14 14 13 12 10 11 14 14 9 7 9 8 8 7 8 9 11 13 13 13 13 13 12 10 11 10 11 12 12 11 10 10 10 10 10 11 12 12 13 14 14 14 15 15 15 16 16 16
3 3 5 4 2 10 4 2 4 5 3 4 4 4 4 3 3 5 8 7 7 9 10 10 11 13 12 10 8 8 8 9 9 9 10 10 10 10 10 10 10 11 12 12 13 14 15 15 16 17 17 17 17 18
7 11 12 7 4 4 4 4 3 3 3 2 2 1 2 2 3 6 10 9 7 6 8 10 11 10 8 7 6 6 6 6 6 7 8 8 9 9 10 10 11 12 12 13 14 15 15 16 16 17 17 18 18 19
Wind_Direction
281 278 277 276 275 275 274 273 270 266 263 263 264 266 262 256 250 249 253 251 245 248 258 253 251 245 251 254 251 255 300 264 276 257 234 225 232 224 234 247 244 186 171 216 217 228 253 154 250 228 229 289 282 316
280 278 277 279 281 280 278 276 273 265 263 266 270 266 261 258 250 244 249 251 255 247 252 259 264 258 246 251 248 241 241 253 212 279 356 329 320 271 242 246 227 235 220 204 203 234 258 264 237 255 281 292 286 278
277 277 273 274 281 286 282 277 272 269 266 265 266 264 259 258 248 241 245 252 255 257 267 262 254 261 253 247 243 244 253 252 247 248 282 230 241 315 299 261 259 249 252 243 261 246 241 246 254 262 278 273 281 278
275 273 269 268 274 275 279 278 274 268 266 263 264 263 261 256 250 245 245 249 245 246 248 267 267 261 268 254 243 239 247 254 258 254 248 229 226 207 247 254 281 278 319 288 261 260 273 262 251 248 253 270 275 277
269 269 265 265 269 271 276 276 267 265 264 265 265 267 262 260 251 248 251 252 250 229 251 259 263 243 248 246 243 240 238 244 248 246 229 240 237 248 251 273 255 247 247 285 287 302 282 304 311 294 293 273 266 268
264 263 262 264 263 266 268 267 263 261 263 266 269 271 267 259 246 245 255 251 241 235 243 250 264 266 263 239 241 245 243 240 240 244 244 241 237 239 257 254 253 258 263 263 263 279 285 293 291 290 297 301 310 309
262 258 258 261 256 261 259 259 257 259 262 266 272 273 265 254 248 220 211 198 213 223 221 233 256 257 255 248 242 238 239 229 232 238 235 244 244 224 249 262 274 266 255 255 272 288 292 288 292 290 285 288 290 288
255 253 252 256 253 256 252 251 252 256 263 267 269 276 267 257 249 242 240 230 209 209 209 227 255 321 212 205 213 232 228 227 231 236 246 247 255 235 246 248 257 258 256 258 266 271 267 274 278 278 288 287 285 285
250 247 244 247 248 248 244 244 249 254 259 264 265 264 256 246 241 255 275 263 247 244 266 260 139 250 212 215 211 218 211 195 228 209 236 241 253 247 248 246 245 243 246 252 254 260 262 261 266 272 273 273 272 273
243 240 236 238 240 242 239 242 245 249 248 254 239 223 231 222 242 173 179 204 208 210 224 236 200 239 202 181 207 162 182 245 300 235 239 213 241 249 252 248 247 250 243 245 246 251 253 255 254 259 262 271 270 277
235 230 230 232 234 238 236 238 242 242 229 207 204 213 210 189 179 191 212 205 203 229 223 246 226 241 239 188 197 220 210 219 230 238 196 212 242 240 248 250 251 247 243 242 240 246 256 257 262 262 265 264 268 265
226 223 226 228 230 235 233 229 233 218 216 213 206 200 185 208 202 218 180 184 209 230 211 208 225 216 223 209 168 218 205 155 239 217 168 233 251 263 263 260 257 252 245 244 245 247 252 253 254 259 258 259 264 265
217 219 222 223 228 230 230 227 221 219 206 205 189 186 189 185 198 204 199 213 205 215 223 217 246 211 193 190 202 189 225 231 284 275 233 245 272 277 275 280 278 271 256 248 244 245 249 253 255 256 259 261 261 258
214 218 220 221 227 226 228 227 212 199 195 200 163 192 198 200 224 203 189 196 219 219 266 275 277 221 212 191 198 230 221 162 241 240 252 279 281 325 329 323 316 320 300 264 251 247 247 250 253 255 256 254 253 251
216 218 220 226 225 226 227 226 208 195 199 218 188 212 209 213 210 218 234 245 255 276 298 328 305 225 245 252 187 227 227 221 226 234 241 312 319 322 325 323 318 316 315 302 284 277 262 252 251 256 251 251 250 251
217 221 225 224 225 227 224 212 202 203 202 212 225 248 235 201 232 242 257 264 271 281 298 270 295 287 260 243 243 226 257 224 247 273 324 321 322 327 327 324 320 313 311 306 305 293 281 278 280 278 272 269 263 258
221 229 230 223 220 217 211 205 200 202 197 206 222 222 223 228 211 213 230 243 289 299 215 127 226 225 292 245 245 235 269 318 319 304 311 313 318 320 320 320 320 325 324 309 305 297 292 291 293 291 269 266 268 257
221 228 231 219 206 201 200 200 200 201 197 210 206 211 217 232 251 255 261 267 263 243 222 222 241 225 241 255 264 271 286 284 298 309 325 334 341 339 345 342 337 332 338 355 40 32 336 339 87 132 169 160 158 157
222 223 206 204 208 189 178 177 191 201 211 219 227 224 218 235 251 259 263 264 252 242 230 204 231 225 227 285 308 314 313 307 298 328 8 8 2 5 16 22 29 37 47 56 69 71 73 77 83 93 113 132 125 124
212 214 202 204 194 154 147 191 193 199 191 212 203 199 211 225 254 274 277 267 252 216 216 229 307 2 304 299 304 307 303 310 298 41 41 37 39 44 47 52 54 57 60 64 68 71 71 71 74 80 87 96 107 105
164 172 180 170 163 168 177 174 185 205 178 205 209 199 230 233 249 249 76 310 154 34 321 335 318 322 309 294 307 311 2 145 97 87 73 68 68 70 68 67 69 69 62 58 63 68 71 69 76 85 87 87 89 91
162 159 160 161 161 182 156 171 141 165 195 224 192 200 224 170 129 132 88 46 47 352 326 318 319 325 359 70 95 109 116 114 104 99 97 92 75 71 67 67 69 67 67 62 61 63 68 73 77 79 81 82 81 81
167 160 148 155 145 174 167 167 145 192 237 220 228 137 65 104 95 125 84 56 22 343 339 352 23 122 111 109 113 113 114 114 103 97 94 90 88 82 74 68 65 64 62 60 63 65 67 71 75 79 83 85 86 86
172 137 117 136 156 148 143 130 132 134 271 335 91 96 101 126 102 80 83 67 351 7 32 53 130 111 103 99 98 100 100 103 100 92 86 86 83 78 75 73 71 70 69 70 68 69 70 70 71 72 74 76 76 76
125 35 113 47 132 102 98 118 110 69 189 249 86 49 306 107 82 73 72 2 1 11 39 65 99 109 104 102 103 105 116 113 106 102 93 90 95 92 84 78 74 71 70 71 69 70 71 71 73 73 70 68 70 70
87 20 98 189 215 113 164 125 165 167 149 100 104 157 75 77 66 68 56 355 359 6 31 69 98 105 101 105 109 108 108 110 108 100 96 96 94 91 88 81 73 66 62 65 67 67 65 62 62 61 61 61 59 57
97 95 92 102 98 110 90 70 65 84 103 101 76 36 62 65 83 82 35 7 9 36 75 102 106 102 99 96 98 104 107 109 105 100 101 97 88 81 79 77 71 65 60 58 58 58 59 58 55 54 53 49 47 45
92 81 111 34 64 44 88 84 89 63 79 4 66 50 117 144 105 102 71 8 93 107 108 110 111 110 109 108 105 99 94 97 102 101 96 89 83 78 73 70 68 60 54 53 50 47 45 45 44 42 42 41 36 29
83 94 92 43 58 51 28 19 74 68 360 25 107 100 103 84 109 113 112 142 128 119 116 115 112 112 112 112 112 113 114 122 125 110 96 89 83 69 61 54 50 46 45 39 38 38 37 33 32 32 29 26 24 20
94 82 93 75 66 58 33 60 72 82 92 99 102 109 102 102 99 128 136 148 155 140 126 123 122 123 116 114 109 105 101 101 99 91 88 80 70 62 55 50 47 45 43 43 43 43 44 40 36 33 29 26 23 20
94 109 85 73 85 118 111 96 90 95 88 97 124 118 120 123 113 117 126 132 138 136 137 133 127 120 117 112 106 105 99 87 81 78 73 70 68 65 58 51 45 42 40 38 37 36 34 30 27 25 22 18 13 8
59 86 124 105 129 163 162 68 71 84 81 66 75 102 110 123 111 147 158 164 164 156 146 142 137 126 118 113 113 106 95 93 87 72 65 68 64 58 52 48 45 41 38 34 31 29 26 22 17 13 10 7 3 359
84 80 95 99 112 155 160 136 87 89 76 82 87 103 98 123 161 179 179 178 179 177 161 151 141 129 125 124 114 107 99 88 79 72 64 60 58 56 52 47 42 38 34 30 26 22 18 15 11 7 4 1 357 354